Torna al catalogo

STARLINK-33776

AttivoComunicazioniVLEO
NORAD 63851·PAYLOAD·🇺🇸 United States

Lanciato May 7, 2025 da Cape Canaveral Space Force Station

Loading…

Prossimi Passaggi (prossime 24 ore)

TLE

AggiornatoSource: CelesTrak SupGP

Epoca: Sep 14, 2026, 20:43 UTC

1 63851C 25093R   26257.86368056 -.00015912  00000+0 -57528-3 0  2572
2 63851  43.0023  89.3535 0000994 275.1243 174.5164 15.27646816    11

Traccia STARLINK-33776 in tempo reale con AllMySat

Download on the App Store